Showing default

KUIPER-00040, 64501

Orbit data source: Space-Track

KUIPER-00040, 64501 is a payload satellite owned by Kuiper Systems (US) in LEO that was launched on Mon, 23 Jun 2025 UTC via an ATLAS V 551 launch vehicle from the Air Force Eastern Test Range (AFETR). Payload-class satellites include a variety of spacecraft equipped with specific instruments for various scientific and technological missions. These include communications satellites like Starlink; space stations such as the ISS; scientific satellites like the Hubble; Earth observation satellites from companies like Planet Labs, Umbra, and HawkEye 360; GPS; miniature CubeSats for education and research; and military/defense satellites.

Loading next visibility...
Identifier
64501, 2025-134B
Orbit
LEO
Country
Flag of USUS
Related business
Manufacturer
Kuiper Systems
Mission
Operational Commercial Communications
Bus & Motor
KUIPER, Unknown motor
Mass
~490 kg wet, ~490 kg dry
Launch date (UTC)
2025-06-23 (1 year ago)
Launch vehicle
ATLAS V 551
Launch site
Air Force Eastern Test Range (AFETR)
Object type
Payload
Rocket body
Debris
Shape & HBR
Box + 2 Pan, 3.4 m
Radar Cross Section
2.326 m², Large (>1 m²)

Expand to show TLE details & history
Last TLE update: 15 hours ago

TLE from 15 hours ago
0 KUIPER-00040
1 64501U 25134B   26171.23109417  .00001920  00000-0  28081-3 0  9999
2 64501  51.8973 149.7543 0000648  35.9978 324.1028 14.79932200 55112
Epoch: 2026-06-20T05:32Z
TLE epoch observation values (Epoch: 2026-06-20T05:32:46.536Z)
Latitude
Longitude
158.11171°
Altitude
629.917 km
Speed
7.545 km/s
True Right ascension
09h 59m 01s
True Declination
0° 00' 00"
Sunlit
Object was in daylight at epoch
Visualization orbit readout
Latitude
Unknown
Longitude
Unknown
Altitude
Unknown
Speed
Unknown
Apparent Right ascension
Unknown
Apparent Declination
Unknown
Sunlit
N/A
Visualization observer readout
Local Sidereal Time
07:13:51
Azimuth
Unknown
Elevation
Unknown
Doppler factor
Unknown
Orbital elements
Apogee altitude
630.444 km
Perigee altitude
629.536 km
Semi-major axis
7,008.127 km
Eccentricity
0.00006
Inclination
51.8973°
RAAN
149.7543°
Arg. of periapsis
35.9978°
True anomaly
324.09845°
Mean anomaly
324.1028°
Eccentric anomaly
324.10062°
Mean motion
3.69948 °/min
Orbital period
97.31 mins
BSTAR
0.00028081
Loading maneuver chart data...
Computing Atmospheric mass density...
Loading historical data...
Loading historical data...
Loading historical data...
Loading historical data...
Loading historical data...
Loading historical data...
Loading historical data...

Documentation

Showing up to 5 results
|